Wetbulb
68.51 71.96 73.80 74.41 73.75 73.41 73.34 73.32 73.72 73.42 73.33 73.00 73.29 73.10 72.53 72.08 71.48 71.24 71.06 70.34 69.85 69.79 69.75 69.51 69.59 69.64 70.02 70.15 70.21 70.30 70.55 70.38 70.85 71.56 71.76 71.26 71.15 70.99 71.19 71.50 71.64 71.34 72.58
70.24 72.10 73.20 74.13 74.29 73.92 73.78 73.65 73.81 73.98 73.78 73.61 73.30 72.85 72.63 72.01 71.22 70.80 70.33 69.87 69.37 69.04 68.87 68.44 68.09 68.14 68.50 68.78 69.66 70.01 69.66 70.17 70.48 70.45 71.21 71.06 71.04 70.35 70.15 69.83 70.95 70.75 72.11
70.62 72.26 73.14 73.45 74.03 73.88 73.68 73.45 73.54 73.78 73.92 73.11 73.23 72.92 72.38 71.66 71.01 70.43 69.94 69.49 69.04 68.69 68.18 67.25 66.22 65.83 66.70 67.11 69.04 69.78 69.85 69.76 70.24 70.07 70.07 67.63 67.74 70.02 69.78 69.08 69.14 69.95 70.73
71.04 71.86 72.53 72.27 72.87 73.76 73.22 73.52 73.30 73.22 73.05 73.08 72.72 72.48 72.02 71.45 70.82 70.29 69.64 69.10 68.46 68.06 67.80 66.76 65.19 64.19 64.73 66.34 67.94 68.86 69.37 69.39 69.57 69.13 66.54 67.85 67.97 69.71 69.59 68.76 68.38 68.58 69.20
69.38 71.59 72.27 72.06 72.73 72.59 73.28 73.38 73.18 73.26 73.15 73.06 72.48 72.23 71.89 71.25 70.56 69.69 68.98 68.42 67.75 67.20 67.01 65.78 63.98 63.05 62.94 64.65 66.83 67.24 67.58 67.65 67.63 66.43 64.78 66.06 66.22 68.98 69.86 69.19 67.69 68.01 68.39
68.74 71.88 70.92 72.23 72.96 72.61 73.05 72.67 72.68 72.31 72.27 72.55 72.17 72.13 71.79 71.22 70.31 69.21 68.50 67.75 67.39 66.52 65.94 64.59 62.78 61.95 62.63 63.48 64.66 65.09 65.14 65.20 66.28 63.30 64.58 64.59 63.75 67.79 68.50 68.43 68.44 68.01 68.06
66.53 71.03 71.17 71.55 72.20 72.09 72.35 72.41 72.04 72.06 72.14 72.23 71.91 71.69 71.10 70.80 69.98 68.87 68.22 67.57 67.20 66.16 65.16 63.77 61.72 60.82 61.23 61.73 61.84 62.07 61.85 61.75 59.37 60.01 60.97 60.53 61.51 65.55 66.02 66.41 67.12 67.32 67.13
67.33 69.62 70.88 68.81 69.61 71.22 71.51 71.43 71.20 71.15 70.87 71.29 71.63 71.47 70.88 70.22 70.06 68.98 68.13 67.50 67.16 65.99 64.83 63.30 61.03 59.79 59.39 59.17 58.97 58.78 58.97 60.30 57.14 55.70 57.92 58.22 63.45 63.64 63.67 63.78 64.96 65.53 65.64
66.90 67.99 68.38 69.87 68.83 67.29 68.41 69.86 70.32 70.58 70.69 70.72 70.68 70.45 70.09 69.71 69.68 69.28 68.27 67.49 66.97 65.77 64.65 63.14 61.25 58.38 57.34 56.89 56.09 56.05 57.66 58.52 52.11 54.13 56.09 56.41 62.75 62.95 63.08 62.66 62.43 63.25 64.04
56.72 58.16 60.32 65.57 67.75 68.97 69.85 67.13 67.99 68.92 69.19 69.44 69.13 68.29 67.23 67.43 67.29 66.66 65.72 66.91 66.79 65.55 64.41 63.14 61.66 57.93 55.24 54.56 54.26 55.74 56.24 55.91 49.32 50.92 51.08 54.19 60.37 62.66 63.11 62.10 61.70 62.09 62.39
53.24 52.78 54.28 56.50 63.61 66.17 68.05 67.71 65.61 66.45 67.01 67.17 66.79 65.23 64.16 67.59 65.85 64.28 64.34 66.00 66.60 65.37 64.29 63.07 61.31 58.02 55.04 55.00 54.60 54.35 54.01 47.14 47.83 48.35 48.78 56.37 58.59 60.49 61.87 63.01 61.90 61.64 62.46
48.76 50.16 51.42 52.13 53.82 59.65 65.86 67.45 69.05 68.61 67.89 67.71 68.16 66.99 67.72 67.03 66.80 64.73 62.10 63.54 64.53 64.20 64.30 62.70 60.61 59.48 58.39 51.01 48.32 51.60 46.65 46.58 46.77 46.81 48.22 54.79 57.02 59.63 60.85 61.54 63.25 62.37 62.44
47.30 50.11 51.51 52.36 52.83 53.57 62.57 66.26 66.95 67.95 66.92 66.52 67.53 66.67 66.13 65.85 64.34 64.06 62.05 62.68 61.70 60.64 61.57 60.67 59.57 58.75 55.59 53.08 51.39 48.89 47.95 46.31 45.37 46.00 50.30 53.22 54.91 57.34 59.34 60.67 62.09 63.79 62.21
48.04 50.02 52.32 54.07 54.74 53.52 54.58 65.59 66.49 66.77 66.16 65.41 65.61 66.00 65.54 64.86 64.60 63.55 62.98 63.83 63.25 62.18 60.99 60.44 58.45 57.85 56.37 54.15 52.45 51.06 49.42 47.96 46.55 46.05 47.54 51.88 52.00 54.57 56.55 58.54 60.74 63.16 63.93
47.57 50.77 51.85 53.97 55.71 55.65 54.23 65.51 64.78 63.82 63.15 62.74 62.71 63.47 63.89 63.30 63.27 63.27 63.15 62.19 61.31 61.35 60.25 58.95 57.60 56.81 54.10 54.46 53.76 51.93 51.14 50.01 48.84 47.87 46.57 50.79 51.47 52.64 54.51 56.00 58.01 59.61 62.30
49.53 49.64 50.78 55.15 57.26 57.91 59.12 60.43 59.44 58.41 58.30 58.54 58.05 58.97 61.33 62.16 61.01 60.61 59.96 59.33 58.63 58.86 58.06 56.57 55.55 55.47 54.28 53.49 53.53 52.34 51.54 51.01 50.65 49.36 48.09 47.35 52.67 51.20 52.44 55.16 56.70 57.68 59.18
48.25 49.77 51.63 54.11 54.71 54.06 54.66 55.29 55.10 55.12 55.57 55.31 55.52 56.19 57.26 57.36 56.23 55.82 55.41 54.64 55.25 55.80 55.49 54.77 54.15 53.65 53.26 53.16 53.67 52.66 50.98 50.49 50.61 50.23 49.29 48.57 49.04 51.47 52.36 53.63 53.83 54.85 55.55
47.05 48.27 50.92 51.92 50.40 50.17 51.03 51.78 52.12 52.40 52.66 53.12 53.88 53.61 54.28 54.56 54.35 53.42 52.53 52.79 53.53 53.84 53.88 52.62 52.24 52.42 51.99 50.92 49.61 49.73 48.92 49.05 49.20 48.28 48.94 48.89 47.88 47.01 49.21 52.46 52.14 52.82 53.90
47.30 48.65 49.16 49.32 48.18 48.20 48.66 48.75 48.96 49.42 49.64 49.72 49.98 49.28 50.28 52.70 53.16 52.02 51.14 50.89 51.06 50.45 50.75 50.27 48.65 48.34 46.38 45.94 45.88 46.12 47.75 47.61 46.49 47.82 47.86 46.33 45.65 44.85 44.74 49.95 51.35 51.06 51.87
48.20 48.37 48.40 48.03 47.65 47.59 47.19 46.71 46.54 46.01 45.45 45.50 44.54 45.00 46.27 47.53 48.18 47.25 47.32 46.60 46.79 45.81 45.07 45.07 47.69 47.50 44.38 43.13 45.33 46.67 47.13 47.46 45.79 45.02 44.94 46.24 44.56 45.39 45.07 44.31 43.94 44.94 50.87
47.09 47.90 47.65 47.50 47.86 48.72 47.58 46.36 44.54 42.06 40.51 40.02 40.43 40.91 41.08 42.25 43.70 43.23 43.03 43.67 42.27 41.17 40.74 41.93 43.39 43.27 42.42 42.70 42.06 42.85 45.66 44.03 43.37 44.05 44.24 43.08 44.22 44.93 44.43 44.78 44.42 44.42 45.36
46.24 46.71 47.50 48.17 49.01 49.33 47.34 45.13 41.26 38.97 38.26 37.65 37.70 37.83 38.39 38.74 38.85 39.19 37.91 37.66 37.57 36.66 36.37 36.24 36.19 39.76 38.78 38.56 38.38 39.97 39.01 42.32 41.13 43.83 42.93 42.14 39.88 40.73 40.87 40.15 42.37 38.98 41.20
45.23 45.97 47.06 47.50 45.82 43.89 42.24 41.34 39.87 38.59 36.68 35.38 34.51 34.88 36.32 36.91 36.87 36.87 36.44 36.14 35.81 35.48 34.22 33.81 33.62 33.44 32.17 34.51 34.55 37.01 34.61 33.64 35.73 39.36 36.77 35.98 34.96 34.98 35.18 37.25 37.40 37.83 40.02
41.57 42.78 43.71 43.65 42.92 42.57 41.65 39.62 38.06 36.04 33.48 33.06 33.55 33.89 34.61 35.09 34.72 35.24 35.15 34.61 34.10 33.79 32.88 32.71 33.87 32.33 32.13 30.49 32.45 34.91 32.12 31.11 32.01 30.39 31.59 32.53 34.03 33.96 33.79 33.83 34.71 36.18 38.91
38.92 38.69 38.79 38.98 39.14 39.36 39.07 38.12 36.44 34.41 33.91 33.91 33.33 32.57 32.66 32.79 33.19 33.45 33.18 32.56 32.31 32.70 31.54 31.42 30.58 30.43 31.04 29.47 29.53 29.69 29.70 29.28 28.98 25.81 23.51 27.42 29.97 31.18 32.20 33.18 33.36 34.79 37.50
36.03 35.98 35.64 35.52 36.05 37.15 36.84 35.95 34.36 33.57 33.34 33.06 32.22 31.20 31.06 31.26 31.40 31.81 32.22 30.67 30.66 30.45 30.39 30.20 30.04 29.41 29.18 29.13 28.86 29.08 28.43 26.96 25.98 25.14 23.02 24.64 24.65 27.73 30.74 30.91 32.25 33.14 35.20
MSLP
1017.24 1017.80 1018.16 1018.45 1018.74 1019.00 1019.16 1019.43 1019.54 1019.65 1019.78 1019.94 1020.12 1020.19 1020.36 1020.49 1020.61 1020.76 1020.86 1020.94 1020.98 1020.93 1020.86 1020.88 1020.98 1021.00 1020.99 1020.95 1020.91 1020.92 1020.76 1020.61 1020.49 1020.50 1020.42 1020.42 1020.51 1020.59 1020.66 1020.67 1020.57 1020.39 1020.37
1016.88 1017.69 1018.26 1018.55 1018.83 1019.13 1019.38 1019.57 1019.72 1019.84 1019.99 1020.12 1020.34 1020.52 1020.63 1020.80 1020.96 1021.18 1021.27 1021.27 1021.37 1021.35 1021.37 1021.37 1021.51 1021.46 1021.40 1021.40 1021.29 1021.24 1021.12 1020.95 1020.86 1020.91 1020.73 1020.78 1021.01 1020.99 1021.15 1021.19 1021.03 1020.80 1020.73
1016.91 1017.85 1018.39 1018.70 1019.02 1019.33 1019.61 1019.80 1020.01 1020.10 1020.20 1020.35 1020.52 1020.74 1020.81 1021.05 1021.19 1021.39 1021.55 1021.59 1021.68 1021.77 1021.82 1021.85 1021.90 1021.85 1021.81 1021.83 1021.73 1021.61 1021.50 1021.34 1021.12 1020.94 1020.96 1021.06 1021.27 1021.36 1021.49 1021.60 1021.47 1021.31 1021.20
1016.98 1017.92 1018.53 1019.00 1019.24 1019.56 1019.82 1020.12 1020.27 1020.43 1020.47 1020.63 1020.79 1020.94 1021.09 1021.36 1021.54 1021.69 1021.86 1021.91 1022.06 1022.17 1022.20 1022.32 1022.35 1022.28 1022.24 1022.22 1022.15 1022.03 1021.95 1021.73 1021.55 1021.36 1021.21 1021.35 1021.60 1021.69 1021.80 1021.84 1021.93 1021.84 1021.69
1017.08 1017.59 1018.37 1019.05 1019.42 1019.68 1020.00 1020.32 1020.54 1020.62 1020.67 1020.80 1020.96 1021.18 1021.43 1021.61 1021.86 1022.15 1022.25 1022.36 1022.47 1022.57 1022.61 1022.78 1022.73 1022.58 1022.66 1022.57 1022.57 1022.50 1022.30 1022.16 1021.87 1021.74 1021.67 1022.09 1022.22 1022.22 1022.23 1022.25 1022.30 1022.36 1022.33
1017.35 1017.90 1018.62 1019.09 1019.49 1019.73 1019.97 1020.43 1020.74 1020.77 1020.89 1021.12 1021.23 1021.36 1021.61 1021.92 1022.22 1022.48 1022.57 1022.63 1022.76 1022.94 1023.11 1023.06 1023.06 1023.08 1023.07 1023.09 1023.01 1022.91 1022.74 1022.44 1022.07 1021.99 1022.19 1022.54 1022.67 1022.63 1022.69 1022.70 1022.60 1022.65 1022.66
1017.58 1018.23 1018.85 1019.21 1019.60 1019.79 1020.13 1020.46 1020.74 1020.95 1021.11 1021.21 1021.45 1021.69 1022.00 1022.24 1022.48 1022.62 1022.84 1023.02 1023.16 1023.32 1023.33 1023.35 1023.42 1023.38 1023.47 1023.46 1023.48 1023.37 1023.19 1022.90 1022.77 1022.70 1023.02 1023.24 1023.21 1023.02 1022.98 1022.99 1022.94 1022.83 1022.86
1017.96 1018.21 1018.80 1019.37 1019.74 1019.96 1020.16 1020.52 1020.81 1021.06 1021.21 1021.37 1021.59 1021.82 1022.07 1022.28 1022.53 1022.81 1023.02 1023.28 1023.41 1023.53 1023.64 1023.82 1023.93 1023.98 1023.89 1023.84 1023.69 1023.67 1023.41 1023.24 1023.04 1023.22 1023.66 1023.81 1023.63 1023.28 1023.26 1023.28 1023.25 1023.12 1023.10
1018.37 1018.53 1018.77 1019.15 1019.58 1020.03 1020.29 1020.50 1020.80 1021.05 1021.27 1021.47 1021.67 1021.87 1022.11 1022.36 1022.65 1022.90 1023.06 1023.30 1023.46 1023.69 1023.77 1024.11 1024.16 1024.29 1024.31 1024.30 1024.20 1023.98 1023.73 1023.47 1023.58 1023.70 1023.89 1024.18 1023.85 1023.53 1023.52 1023.60 1023.53 1023.36 1023.25
1019.32 1019.37 1019.41 1019.46 1019.69 1019.78 1020.11 1020.42 1020.71 1020.96 1021.24 1021.43 1021.60 1021.76 1022.06 1022.31 1022.67 1022.95 1023.14 1023.28 1023.42 1023.66 1023.89 1024.13 1024.22 1024.27 1024.44 1024.54 1024.41 1024.16 1024.16 1023.98 1024.05 1024.24 1024.51 1024.51 1024.13 1023.77 1023.65 1023.69 1023.67 1023.56 1023.45
1020.00 1020.20 1020.27 1020.23 1020.04 1020.20 1020.12 1020.31 1020.72 1020.89 1021.15 1021.43 1021.70 1021.93 1022.24 1022.46 1022.75 1023.02 1023.17 1023.32 1023.55 1023.87 1024.13 1024.38 1024.45 1024.50 1024.61 1024.60 1024.56 1024.47 1024.43 1024.54 1024.57 1024.74 1024.96 1024.79 1024.43 1024.12 1024.04 1023.88 1023.70 1023.62 1023.59
1020.55 1020.63 1020.70 1020.72 1020.67 1020.53 1020.41 1020.42 1020.55 1020.82 1021.10 1021.29 1021.46 1021.84 1022.07 1022.26 1022.66 1022.92 1023.32 1023.57 1023.79 1024.08 1024.40 1024.75 1024.89 1024.92 1024.91 1024.94 1024.91 1024.88 1025.04 1024.97 1024.89 1025.09 1025.19 1024.99 1024.75 1024.49 1024.27 1024.09 1023.85 1023.80 1023.80
1020.88 1020.97 1021.04 1020.95 1020.87 1020.79 1020.59 1020.55 1020.63 1020.78 1021.05 1021.18 1021.37 1021.57 1021.99 1022.42 1022.83 1023.32 1023.77 1023.87 1024.11 1024.24 1024.51 1024.74 1024.77 1024.82 1024.89 1024.91 1024.99 1025.11 1025.17 1025.27 1025.43 1025.49 1025.54 1025.41 1025.20 1024.83 1024.53 1024.30 1024.08 1023.82 1023.83
1021.30 1021.37 1021.39 1021.21 1020.99 1020.82 1020.85 1020.58 1020.62 1020.81 1021.35 1021.91 1022.20 1022.29 1022.50 1022.85 1023.23 1023.66 1024.03 1024.16 1024.30 1024.52 1024.72 1024.82 1025.01 1025.12 1025.17 1025.22 1025.28 1025.29 1025.24 1025.24 1025.22 1025.20 1025.34 1025.27 1025.25 1025.07 1024.82 1024.59 1024.37 1024.11 1023.83
1021.63 1021.72 1021.88 1021.69 1021.35 1020.83 1020.84 1020.64 1021.18 1021.55 1022.05 1022.49 1022.83 1022.99 1023.05 1023.35 1023.74 1024.03 1024.36 1024.67 1024.88 1024.96 1025.23 1025.39 1025.47 1025.63 1025.75 1025.75 1025.67 1025.63 1025.45 1025.29 1025.26 1025.38 1025.45 1025.43 1025.45 1025.38 1025.11 1024.83 1024.61 1024.45 1024.25
1021.81 1022.13 1022.16 1021.82 1021.27 1021.04 1021.49 1021.44 1021.97 1022.44 1022.87 1023.21 1023.58 1023.67 1023.57 1023.73 1024.06 1024.37 1024.83 1025.14 1025.41 1025.54 1025.76 1025.90 1025.98 1026.07 1026.13 1026.10 1026.02 1026.14 1026.24 1026.09 1025.81 1025.62 1025.59 1025.59 1025.57 1025.59 1025.56 1025.38 1025.18 1024.93 1024.65
1022.24 1022.37 1022.27 1022.10 1022.01 1022.05 1022.19 1022.33 1022.77 1023.22 1023.49 1023.82 1024.09 1024.09 1024.16 1024.19 1024.49 1024.86 1025.37 1025.71 1025.91 1026.02 1026.18 1026.40 1026.46 1026.53 1026.56 1026.45 1026.29 1026.28 1026.32 1026.46 1026.42 1026.25 1026.17 1026.05 1026.07 1026.04 1025.91 1025.84 1025.78 1025.52 1025.15
1022.50 1022.61 1022.63 1022.52 1022.68 1022.80 1022.81 1022.99 1023.26 1023.60 1023.82 1024.20 1024.49 1024.74 1024.87 1024.96 1025.17 1025.56 1025.93 1026.08 1026.21 1026.23 1026.32 1026.57 1026.76 1026.85 1026.95 1026.88 1026.89 1026.74 1026.67 1026.63 1026.61 1026.52 1026.49 1026.45 1026.67 1026.71 1026.61 1026.26 1026.07 1025.88 1025.62
1022.69 1022.86 1023.00 1023.14 1023.25 1023.40 1023.52 1023.61 1023.84 1024.11 1024.35 1024.77 1025.12 1025.40 1025.45 1025.40 1025.61 1025.95 1026.22 1026.45 1026.50 1026.57 1026.56 1026.66 1026.91 1026.91 1027.24 1027.17 1026.96 1026.66 1026.52 1026.75 1026.96 1026.79 1026.66 1026.70 1026.99 1027.06 1027.01 1026.90 1026.72 1026.45 1026.09
1022.84 1023.09 1023.27 1023.51 1023.65 1023.78 1023.94 1024.25 1024.54 1024.93 1025.32 1025.59 1026.01 1026.23 1026.27 1026.26 1026.35 1026.51 1026.74 1027.09 1027.25 1027.31 1027.47 1027.28 1027.24 1027.34 1027.61 1027.35 1026.83 1026.80 1026.67 1026.91 1026.96 1027.19 1027.34 1027.35 1027.31 1027.43 1027.43 1027.26 1027.05 1026.83 1026.56
1022.90 1023.18 1023.44 1023.56 1023.67 1023.79 1024.03 1024.33 1024.94 1025.78 1026.38 1026.75 1027.02 1027.09 1027.07 1027.09 1027.25 1027.47 1027.71 1027.92 1028.14 1028.25 1028.47 1028.21 1028.09 1028.19 1028.27 1027.82 1027.45 1027.25 1027.05 1027.02 1027.34 1027.29 1027.34 1027.83 1027.99 1028.09 1027.95 1027.83 1027.62 1027.42 1026.98
1022.83 1023.06 1023.34 1023.51 1023.68 1023.70 1023.85 1024.40 1025.15 1026.11 1027.04 1027.51 1027.85 1027.85 1027.81 1027.79 1027.88 1028.13 1028.54 1028.86 1029.10 1029.32 1029.38 1029.35 1029.34 1029.37 1029.33 1029.27 1029.23 1028.86 1028.79 1028.48 1028.56 1028.54 1028.33 1028.41 1028.84 1028.71 1028.72 1028.31 1028.06 1028.01 1027.64
1022.68 1022.85 1023.01 1023.21 1023.45 1023.90 1024.13 1024.68 1025.46 1026.36 1027.35 1028.16 1028.63 1028.64 1028.59 1028.49 1028.56 1028.80 1029.18 1029.42 1029.68 1029.81 1030.24 1030.44 1030.37 1030.33 1030.59 1030.18 1029.85 1030.13 1030.56 1030.70 1030.14 1028.94 1029.09 1029.56 1029.41 1029.36 1029.35 1029.12 1028.61 1028.25 1027.87
1022.69 1022.87 1023.11 1023.40 1023.67 1023.96 1024.18 1024.70 1025.31 1026.22 1027.35 1028.47 1028.88 1029.29 1029.26 1028.95 1028.95 1029.18 1029.56 1030.03 1030.38 1030.70 1031.05 1031.17 1031.13 1031.22 1031.26 1031.42 1031.20 1031.31 1031.44 1031.79 1031.64 1030.96 1030.06 1030.00 1029.91 1029.99 1029.72 1029.60 1029.07 1028.73 1028.07
1023.01 1023.31 1023.48 1023.81 1024.17 1024.31 1024.45 1024.86 1025.65 1026.81 1027.72 1028.58 1029.25 1029.66 1029.98 1030.08 1029.83 1029.84 1029.81 1030.17 1030.84 1031.21 1031.59 1031.86 1032.18 1032.16 1032.12 1032.20 1032.30 1032.35 1032.36 1032.25 1032.48 1032.45 1031.73 1031.20 1030.75 1030.51 1030.14 1029.79 1029.39 1028.99 1028.39
1023.17 1023.64 1023.94 1024.27 1024.52 1024.62 1024.84 1025.31 1026.05 1026.93 1027.80 1028.63 1029.30 1029.76 1030.09 1030.23 1030.38 1030.56 1030.73 1031.02 1031.14 1031.52 1031.88 1032.26 1032.44 1032.50 1032.55 1032.60 1032.72 1033.04 1033.36 1033.26 1033.32 1033.36 1033.03 1032.47 1031.91 1031.03 1030.39 1030.01 1029.63 1029.20 1028.62
Wind_Speed
9 11 12 13 13 12 11 11 10 10 11 12 12 15 16 16 16 15 15 16 15 15 16 16 15 14 14 14 15 14 13 11 11 13 16 19 18 18 19 18 14 12 17
15 13 11 12 12 12 10 9 9 9 10 12 12 14 15 15 15 15 15 16 15 16 16 16 15 15 15 14 14 13 12 10 8 7 12 17 16 17 17 16 15 14 18
13 12 10 11 11 11 10 8 8 9 9 11 12 13 14 14 15 15 15 15 15 15 16 16 15 15 14 14 13 14 12 10 11 11 8 7 9 16 16 16 15 16 16
12 11 10 10 11 11 10 8 7 8 9 11 12 12 13 14 14 15 15 15 15 15 15 15 15 15 14 13 13 13 12 12 13 14 7 9 10 14 16 15 16 15 16
7 11 13 11 10 10 11 8 8 8 8 10 11 12 12 13 14 14 14 15 15 15 15 14 15 15 14 13 13 13 13 14 14 10 9 11 7 13 15 14 14 14 14
6 12 12 12 10 11 12 9 7 7 7 8 9 10 11 12 13 13 13 14 15 15 14 15 15 15 15 14 13 13 13 14 11 10 12 13 10 15 15 14 13 13 13
5 12 8 9 4 8 11 9 7 7 7 7 7 7 8 11 12 12 12 13 14 14 15 15 14 14 13 13 13 12 12 13 8 8 9 10 7 13 13 13 13 13 13
7 7 9 8 7 6 7 8 7 7 6 7 7 7 7 10 11 12 13 13 14 14 14 14 13 13 13 12 12 11 10 11 8 7 9 7 12 12 13 12 11 11 11
6 4 5 6 8 6 4 5 7 8 8 8 7 7 8 9 11 11 12 12 13 12 13 12 12 11 12 12 11 9 10 11 7 6 8 5 11 12 12 12 11 10 10
8 8 8 6 6 2 5 8 8 7 7 7 7 8 9 11 11 11 10 11 12 11 11 10 11 11 10 10 9 9 10 9 7 6 5 4 11 12 11 10 11 11 10
6 7 6 6 5 4 4 4 6 7 7 7 5 6 7 5 6 8 9 10 10 9 10 9 8 7 7 7 7 8 9 4 5 5 4 11 12 11 11 11 10 9 9
6 5 5 5 5 3 2 2 4 5 4 5 6 6 4 3 5 7 7 8 8 9 9 8 5 6 4 4 4 8 3 5 4 4 3 9 10 10 11 11 10 9 8
4 6 6 5 3 3 3 1 1 2 2 2 5 4 3 4 4 4 3 3 3 4 3 3 4 3 5 4 4 3 4 5 3 3 4 9 10 11 11 10 10 9 6
6 6 6 7 4 2 3 3 1 3 6 7 8 9 5 3 4 4 3 2 4 2 4 1 3 4 4 4 4 4 4 3 2 1 2 5 6 8 10 11 11 11 10
6 7 8 7 7 1 2 3 7 7 8 8 8 9 6 6 6 5 5 5 5 4 4 5 4 4 5 5 4 4 3 2 2 1 1 2 5 8 9 9 9 9 11
6 7 5 6 7 8 8 10 8 7 8 8 7 7 8 6 6 6 5 5 5 5 4 3 4 4 3 4 4 5 6 6 5 4 3 2 1 4 9 12 12 12 11
6 5 5 5 8 9 9 9 8 7 7 7 6 8 8 8 8 8 6 6 5 5 6 6 6 5 5 5 5 5 4 6 6 6 5 4 5 7 9 11 15 16 15
5 5 5 6 8 9 9 8 7 7 7 7 7 6 8 10 10 8 6 6 4 4 5 5 3 3 4 4 4 4 4 4 6 6 5 4 5 5 8 16 16 17 16
5 5 6 7 9 9 9 8 9 10 8 8 7 6 8 7 7 6 4 4 4 4 4 3 4 4 3 4 4 3 2 2 3 3 5 7 7 6 4 11 15 16 19
6 5 7 6 8 9 7 8 8 8 8 8 7 7 8 7 9 6 6 8 6 6 5 5 5 5 4 4 4 3 2 3 3 4 6 6 6 7 6 7 5 5 14
5 6 7 8 6 6 6 7 7 7 6 7 7 9 9 8 9 8 7 7 7 8 7 8 5 7 7 9 4 5 5 6 6 4 5 5 6 7 8 7 5 5 6
6 6 6 5 5 4 5 4 5 5 7 7 6 8 8 9 9 9 8 8 8 7 9 10 9 4 5 9 4 2 4 4 8 6 8 7 9 6 7 10 7 12 9
7 7 6 6 7 7 8 8 9 7 5 5 5 5 7 9 9 9 9 8 8 6 7 7 7 8 5 5 10 4 4 3 4 3 5 6 8 5 7 7 8 11 8
6 6 6 7 8 7 8 8 8 7 8 4 5 4 5 7 8 8 8 8 8 5 8 6 7 6 5 5 4 6 5 1 3 5 5 4 9 7 9 6 9 9 6
7 6 6 7 6 7 8 8 9 10 7 6 5 7 7 6 7 8 8 8 8 6 6 7 7 7 5 4 4 3 3 3 5 2 4 8 5 5 5 8 9 6 7
7 7 7 7 6 7 8 9 9 11 10 7 5 5 4 4 5 7 8 7 7 6 6 5 6 7 5 5 4 5 3 2 3 2 3 6 6 5 8 5 7 7 7
Wind_Direction
125 132 137 133 127 118 111 106 100 100 100 100 105 102 93 84 77 73 72 70 65 62 61 58 55 54 50 48 48 47 48 48 55 63 74 65 52 48 45 39 43 48 49
120 135 139 137 133 125 116 111 109 113 116 113 106 103 95 89 85 80 75 71 67 61 59 57 49 46 43 41 43 43 41 23 22 61 94 72 57 51 49 45 41 44 46
125 123 143 138 132 126 119 114 109 105 109 114 111 105 98 92 87 81 77 72 65 62 56 52 49 46 43 39 39 38 33 11 353 345 342 97 72 55 49 46 43 42 44
120 138 134 138 141 130 122 118 109 102 99 106 110 107 100 94 86 80 75 70 65 62 59 52 48 46 44 41 41 38 24 5 351 346 40 50 59 53 46 42 44 43 44
115 144 131 141 145 144 133 131 130 117 107 111 111 111 113 101 93 90 85 77 72 66 62 56 53 51 46 46 44 35 20 1 343 334 60 53 37 39 40 45 44 43 39
132 100 127 141 155 155 137 134 123 117 116 112 120 123 116 113 104 97 91 84 79 74 68 61 57 54 51 49 47 37 21 3 13 31 49 45 34 29 27 31 42 41 31
130 115 127 131 108 155 139 140 143 137 126 116 111 109 114 116 107 101 89 81 80 73 67 63 60 59 59 56 51 40 24 5 357 37 58 47 21 35 34 28 27 29 28
71 78 126 113 84 74 138 149 152 148 140 128 119 118 129 124 118 109 96 86 82 74 69 64 60 61 60 57 53 41 24 12 43 35 63 43 16 35 36 33 29 30 31
69 92 99 145 149 131 126 158 158 157 151 143 137 131 126 125 123 114 107 106 104 98 91 84 74 67 59 53 46 36 16 6 45 45 58 31 14 28 34 31 28 27 27
35 35 13 34 48 39 162 177 165 162 161 154 153 144 140 129 128 128 126 121 118 109 99 92 84 81 75 62 40 20 14 24 39 60 55 24 26 28 28 30 27 25 25
74 55 39 11 9 16 300 140 161 174 180 160 154 137 140 146 147 149 121 129 125 111 104 87 74 93 101 83 52 26 44 17 44 61 48 26 24 24 22 17 23 25 29
38 57 41 18 6 345 269 266 197 163 173 186 173 164 199 179 143 127 121 113 114 116 100 76 50 18 36 59 26 36 26 15 36 66 57 39 26 24 22 19 11 24 25
10 43 26 10 357 314 215 273 360 147 169 235 46 131 111 108 109 101 100 107 112 126 104 92 34 85 66 63 50 59 36 28 31 39 47 38 17 15 17 16 12 7 12
35 34 27 354 337 310 319 177 135 57 65 57 49 28 51 58 78 88 98 101 91 51 85 159 88 42 69 73 49 44 42 42 46 52 127 74 26 11 9 9 7 359 358
34 37 25 359 326 313 229 117 69 70 70 62 52 43 49 55 58 63 55 46 39 42 36 43 57 44 37 13 17 24 20 37 42 30 17 73 26 1 360 3 5 1 353
60 45 8 351 1 59 63 73 77 71 75 73 61 50 53 76 80 78 71 64 54 44 44 22 40 17 28 10 4 5 346 340 344 351 1 12 18 14 7 359 359 354 352
76 59 29 23 53 69 73 78 81 80 80 81 72 59 60 64 67 73 67 55 42 39 40 30 30 27 14 1 356 360 6 350 339 355 0 12 17 21 4 15 2 352 345
80 71 58 68 74 74 81 84 87 86 86 80 70 65 64 69 67 73 77 78 69 73 69 63 35 46 20 14 354 344 348 351 7 10 356 25 28 16 10 14 7 356 354
87 85 81 78 84 85 83 82 81 81 76 69 63 51 40 61 80 79 70 68 64 48 52 72 64 77 32 353 324 302 305 34 35 10 13 52 42 31 22 10 7 9 1
99 101 98 96 99 97 91 88 82 75 67 62 56 48 39 44 51 53 59 56 42 42 30 16 44 53 41 330 299 310 280 89 54 52 46 50 46 26 20 18 9 351 355
107 113 116 124 147 128 123 110 92 89 78 66 57 53 49 51 51 49 45 51 49 51 32 23 18 49 21 358 17 349 40 81 38 47 72 54 36 26 14 11 352 355 347
129 126 138 163 176 128 88 90 97 100 80 80 66 59 54 57 58 67 60 53 51 52 40 31 30 26 30 23 14 324 18 346 15 20 45 32 27 11 16 349 9 359 339
141 145 146 124 99 94 103 105 103 103 91 79 51 62 49 60 62 65 64 66 60 57 57 39 32 36 37 14 39 79 23 352 333 357 32 25 17 8 2 344 357 345 328
136 126 119 118 124 132 134 131 135 116 113 98 100 82 63 57 71 72 71 65 62 51 51 42 35 41 42 36 14 19 49 71 350 326 353 343 6 348 346 343 343 321 327
140 128 110 99 90 89 96 104 105 108 106 107 103 94 74 57 62 66 73 75 68 60 55 57 39 34 40 59 55 12 11 347 46 333 303 325 329 340 335 335 317 307 318
120 118 120 116 113 109 107 103 111 122 127 123 110 102 98 84 65 63 66 68 77 69 66 58 60 56 52 56 48 38 50 31 353 359 318 315 306 308 324 310 312 327 327